Retour au catalogue

STARLINK-37717

ActifCommunicationsSSO
NORAD 100226·PAYLOAD·🇺🇸 United States

Lancé Aug 4, 2026 depuis Vandenberg Space Force Base

Loading…

Prochains Passages (prochaines 24 heures)

TLE

FraisSource: Space-Track

Époque: Sep 14, 2026, 22:31 UTC

1 A0226U 26177P   26257.93854037  .00046127  00000-0  84345-3 0  9991
2 A0226  97.2835 308.7454 0000727 138.4611 221.6695 15.49236020  7636

Suivez STARLINK-37717 en temps réel avec AllMySat

Download on the App Store